• In Hungary
  • List of Countries
  • For 7 days
  • Water Temperature
  • Satellite Maps
  • Weather Map
  • News
  • Weather Widgets
  • user-avatar
    Login

    Hourly Weather Lucknow

    Today, 21 August, Monday

    Time Temperature Precipitation Wind Pressure Humidity
    00:00 +31°C° 0.2 mm 3 mps 739 mmHg 77%
    01:00 +30°C° 0.2 mm 3 mps 739 mmHg 77%
    02:00 +30°C° 0.2 mm 3 mps 739 mmHg 78%
    03:00 +30°C° 0.2 mm 3 mps 739 mmHg 80%
    04:00 +30°C° 0.2 mm 3 mps 739 mmHg 81%
    05:00 +29°C° 0.2 mm 3 mps 739 mmHg 82%
    06:00 +30°C° 0.2 mm 3 mps 740 mmHg 79%
    07:00 +32°C° 0.2 mm 4 mps 740 mmHg 75%
    08:00 +33°C° 0.2 mm 4 mps 741 mmHg 71%
    09:00 +34°C° 0.7 mm 4 mps 740 mmHg 67%
    10:00 +35°C° 0.7 mm 4 mps 740 mmHg 63%
    11:00 +36°C° 0.7 mm 4 mps 740 mmHg 59%
    12:00 +36°C° 0.5 mm 4 mps 740 mmHg 58%
    13:00 +37°C° 0.5 mm 4 mps 739 mmHg 58%
    14:00 +37°C° 0.5 mm 4 mps 738 mmHg 57%
    15:00 +36°C° 0 mm 4 mps 738 mmHg 61%
    16:00 +36°C° 0 mm 3 mps 738 mmHg 64%
    17:00 +35°C° 0 mm 3 mps 737 mmHg 67%
    18:00 +34°C° 0 mm 3 mps 738 mmHg 70%
    19:00 +33°C° 0 mm 3 mps 738 mmHg 72%
    20:00 +33°C° 0 mm 3 mps 738 mmHg 75%
    21:00 +31°C° 0.1 mm 3 mps 738 mmHg 76%
    22:00 +31°C° 0.1 mm 3 mps 738 mmHg 77%
    23:00 +31°C° 0.1 mm 3 mps 739 mmHg 78%

    Tomorrow, 22 August, Tuesday

    Time Temperature Precipitation Wind Pressure Humidity
    00:00 +30°C° 1.1 mm 3 mps 738 mmHg 79%
    01:00 +30°C° 1.1 mm 3 mps 738 mmHg 80%
    02:00 +30°C° 1.1 mm 3 mps 738 mmHg 81%
    03:00 +30°C° 0.4 mm 3 mps 738 mmHg 81%
    04:00 +30°C° 0.4 mm 2 mps 739 mmHg 82%
    05:00 +29°C° 0.4 mm 2 mps 739 mmHg 82%
    06:00 +30°C° 0.5 mm 2 mps 739 mmHg 78%
    07:00 +33°C° 0.5 mm 3 mps 740 mmHg 74%
    08:00 +34°C° 0.5 mm 3 mps 740 mmHg 70%
    09:00 +35°C° 0.5 mm 3 mps 740 mmHg 66%
    10:00 +36°C° 0.5 mm 3 mps 740 mmHg 62%
    11:00 +36°C° 0.5 mm 3 mps 740 mmHg 57%
    12:00 +37°C° 0 mm 3 mps 740 mmHg 56%
    13:00 +37°C° 0 mm 2 mps 739 mmHg 55%
    14:00 +37°C° 0 mm 2 mps 739 mmHg 53%
    15:00 +37°C° 0 mm 2 mps 738 mmHg 55%
    16:00 +37°C° 0 mm 2 mps 738 mmHg 58%
    17:00 +36°C° 0 mm 1 mps 738 mmHg 60%
    18:00 +36°C° 0 mm 2 mps 738 mmHg 62%
    19:00 +35°C° 0 mm 2 mps 739 mmHg 64%
    20:00 +34°C° 0 mm 2 mps 739 mmHg 67%
    21:00 +34°C° 0 mm 2 mps 739 mmHg 68%
    22:00 +32°C° 0 mm 2 mps 739 mmHg 70%
    23:00 +32°C° 0 mm 1 mps 740 mmHg 71%

    Day after tomorrow, 23 August, Wednesday

    Time Temperature Precipitation Wind Pressure Humidity
    00:00 +31°C° 2.2 mm 2 mps 739 mmHg 75%
    01:00 +31°C° 2.2 mm 2 mps 739 mmHg 78%
    02:00 +30°C° 2.2 mm 2 mps 739 mmHg 82%
    03:00 +30°C° 1 mm 2 mps 739 mmHg 83%
    04:00 +30°C° 1 mm 2 mps 740 mmHg 84%
    05:00 +30°C° 1 mm 2 mps 740 mmHg 85%
    06:00 +30°C° 1.1 mm 2 mps 740 mmHg 84%
    07:00 +30°C° 1.1 mm 3 mps 741 mmHg 84%
    08:00 +30°C° 1.1 mm 3 mps 742 mmHg 83%
    09:00 +31°C° 0.3 mm 3 mps 742 mmHg 81%
    10:00 +31°C° 0.3 mm 2 mps 742 mmHg 79%
    11:00 +32°C° 0.3 mm 2 mps 742 mmHg 77%
    12:00 +32°C° 0 mm 2 mps 741 mmHg 73%
    13:00 +34°C° 0 mm 2 mps 740 mmHg 69%
    14:00 +35°C° 0 mm 2 mps 740 mmHg 65%
    15:00 +34°C° 0 mm 2 mps 739 mmHg 67%
    16:00 +34°C° 0 mm 2 mps 739 mmHg 69%
    17:00 +34°C° 0 mm 2 mps 739 mmHg 70%
    18:00 +32°C° 0.1 mm 2 mps 739 mmHg 73%
    19:00 +31°C° 0.1 mm 2 mps 740 mmHg 75%
    20:00 +30°C° 0.1 mm 2 mps 740 mmHg 77%
    21:00 +30°C° 0.1 mm 2 mps 740 mmHg 76%
    22:00 +30°C° 0.1 mm 1 mps 740 mmHg 76%
    23:00 +30°C° 0.1 mm 1 mps 740 mmHg 75%

    24 August, Thursday

    Time Temperature Precipitation Wind Pressure Humidity
    00:00 +29°C° 0 mm 1 mps 740 mmHg 75%
    01:00 +29°C° 0 mm 1 mps 739 mmHg 74%
    02:00 +29°C° 0 mm 1 mps 739 mmHg 73%
    03:00 +29°C° 0 mm 1 mps 739 mmHg 73%
    04:00 +29°C° 0 mm 1 mps 740 mmHg 73%
    05:00 +29°C° 0 mm 1 mps 740 mmHg 73%
    06:00 +30°C° 0 mm 1 mps 740 mmHg 69%
    07:00 +31°C° 0 mm 1 mps 741 mmHg 66%
    08:00 +32°C° 0 mm 1 mps 742 mmHg 62%
    09:00 +34°C° 0 mm 1 mps 741 mmHg 58%
    10:00 +35°C° 0 mm 1 mps 741 mmHg 53%
    11:00 +37°C° 0 mm 1 mps 741 mmHg 49%
    12:00 +37°C° 0 mm 1 mps 740 mmHg 47%
    13:00 +39°C° 0 mm 1 mps 740 mmHg 44%
    14:00 +39°C° 0 mm 1 mps 739 mmHg 42%
    15:00 +39°C° 0 mm 1 mps 739 mmHg 45%
    16:00 +39°C° 0 mm 1 mps 738 mmHg 47%
    17:00 +37°C° 0 mm 1 mps 738 mmHg 50%
    18:00 +36°C° 0 mm 1 mps 738 mmHg 52%
    19:00 +35°C° 0 mm 1 mps 739 mmHg 53%
    20:00 +34°C° 0 mm 1 mps 739 mmHg 55%
    21:00 +33°C° 0 mm 1 mps 739 mmHg 57%
    22:00 +33°C° 0 mm 1 mps 739 mmHg 59%
    23:00 +33°C° 0 mm 1 mps 739 mmHg 61%

    25 August, Friday

    Time Temperature Precipitation Wind Pressure Humidity
    00:00 +32°C° 0 mm 1 mps 738 mmHg 63%
    01:00 +32°C° 0 mm 1 mps 738 mmHg 65%
    02:00 +31°C° 0 mm 1 mps 738 mmHg 67%
    03:00 +31°C° 0 mm 1 mps 738 mmHg 70%
    04:00 +31°C° 0 mm 1 mps 738 mmHg 72%
    05:00 +31°C° 0 mm 1 mps 738 mmHg 74%
    06:00 +32°C° 0.4 mm 2 mps 739 mmHg 71%
    07:00 +34°C° 0.4 mm 2 mps 739 mmHg 68%
    08:00 +35°C° 0.4 mm 2 mps 740 mmHg 65%
    09:00 +36°C° 0.4 mm 2 mps 740 mmHg 60%
    10:00 +37°C° 0.4 mm 2 mps 740 mmHg 55%
    11:00 +38°C° 0.4 mm 2 mps 739 mmHg 51%
    12:00 +38°C° 0 mm 2 mps 739 mmHg 50%
    13:00 +37°C° 0 mm 1 mps 738 mmHg 49%
    14:00 +37°C° 0 mm 1 mps 737 mmHg 49%
    15:00 +37°C° 0 mm 1 mps 737 mmHg 51%
    16:00 +37°C° 0 mm 1 mps 737 mmHg 52%
    17:00 +37°C° 0 mm 1 mps 736 mmHg 54%
    18:00 +36°C° 0 mm 1 mps 736 mmHg 57%
    19:00 +35°C° 0 mm 1 mps 737 mmHg 59%
    20:00 +33°C° 0 mm 1 mps 737 mmHg 61%
    21:00 +33°C° 0.2 mm 1 mps 737 mmHg 64%
    22:00 +32°C° 0.2 mm 1 mps 737 mmHg 66%
    23:00 +32°C° 0.2 mm 1 mps 737 mmHg 68%

    26 August, Saturday

    Time Temperature Precipitation Wind Pressure Humidity
    00:00 +32°C° 0.5 mm 1 mps 736 mmHg 70%
    01:00 +31°C° 0.5 mm 1 mps 736 mmHg 73%
    02:00 +31°C° 0.5 mm 1 mps 736 mmHg 75%
    03:00 +31°C° 0.1 mm 1 mps 736 mmHg 76%
    04:00 +30°C° 0.1 mm 1 mps 736 mmHg 78%
    05:00 +30°C° 0.1 mm 1 mps 736 mmHg 79%
    06:00 +31°C° 1.2 mm 1 mps 737 mmHg 75%
    07:00 +32°C° 1.2 mm 1 mps 737 mmHg 71%
    08:00 +33°C° 1.2 mm 1 mps 738 mmHg 66%
    09:00 +35°C° 2.2 mm 2 mps 738 mmHg 63%
    10:00 +36°C° 2.2 mm 2 mps 737 mmHg 59%
    11:00 +37°C° 2.2 mm 2 mps 737 mmHg 55%
    12:00 +37°C° 0.1 mm 2 mps 737 mmHg 53%
    13:00 +38°C° 0.1 mm 2 mps 736 mmHg 52%
    14:00 +37°C° 0.1 mm 1 mps 736 mmHg 50%
    15:00 +37°C° 0 mm 1 mps 736 mmHg 53%
    16:00 +36°C° 0 mm 1 mps 735 mmHg 57%
    17:00 +36°C° 0 mm 1 mps 735 mmHg 60%
    18:00 +35°C° 0 mm 1 mps 736 mmHg 62%
    19:00 +34°C° 0 mm 1 mps 736 mmHg 64%
    20:00 +33°C° 0 mm 1 mps 736 mmHg 66%
    21:00 +33°C° 0 mm 1 mps 736 mmHg 67%
    22:00 +32°C° 0 mm 1 mps 736 mmHg 69%
    23:00 +32°C° 0 mm 1 mps 736 mmHg 70%
    Show more